This is the latest recevied weather packets stored in our database for station/object KE8GJZ-1. If no packets are shown the sender has not sent any weather packets the latest 10 day(s).
| Time | Temp. | Humidity | Pressure | Rain* | Wind** | Luminosity | Snow |
|---|---|---|---|---|---|---|---|
| 1778200844 | 10.56° C | 51% | 1009.1 hPa | 0 mm | - | 0 W/m² | - |
| 1778200540 | 10.56° C | 49% | 1009.3 hPa | 0 mm | - | 1 W/m² | - |
| 1778200238 | 10.56° C | 49% | 1009.3 hPa | 0 mm | - | 2 W/m² | - |
| 1778199934 | 10.56° C | 49% | 1009.2 hPa | 0 mm | - | 3 W/m² | - |
| 1778199632 | 11.11° C | 49% | 1009.2 hPa | 0 mm | - | 5 W/m² | - |
| 1778199327 | 11.11° C | 48% | 1009.1 hPa | 0 mm | - | 5 W/m² | - |
| 1778199024 | 11.11° C | 47% | 1009 hPa | 0 mm | - | 9 W/m² | - |
| 1778198719 | 11.11° C | 47% | 1009.4 hPa | 0 mm | - | 11 W/m² | - |
| 1778198417 | 11.11° C | 46% | 1009.1 hPa | 0 mm | - | 16 W/m² | - |
| 1778198113 | 11.67° C | 46% | 1009 hPa | 0 mm | - | 16 W/m² | - |
| 1778197811 | 11.67° C | 45% | 1008.9 hPa | 0 mm | - | 31 W/m² | - |
| 1778197507 | 11.67° C | 45% | 1009.2 hPa | 0 mm | - | 23 W/m² | - |
| 1778197204 | 11.67° C | 45% | 1009.1 hPa | 0 mm | - | 29 W/m² | - |
| 1778196901 | 11.67° C | 45% | 1009 hPa | 0 mm | - | 14 W/m² | - |
| 1778196599 | 11.67° C | 44% | 1009.3 hPa | 0 mm | - | 18 W/m² | - |
| 1778196295 | 11.67° C | 45% | 1009.3 hPa | 0 mm | - | 19 W/m² | - |
| 1778195993 | 12.22° C | 44% | 1009.2 hPa | 0 mm | - | 38 W/m² | - |
| 1778195688 | 12.22° C | 45% | 1009.3 hPa | 0 mm | - | 52 W/m² | - |
| 1778195386 | 12.22° C | 44% | 1009.3 hPa | 0 mm | - | 55 W/m² | - |
| 1778195083 | 12.22° C | 44% | 1009.2 hPa | 0 mm | - | 54 W/m² | - |
| 1778194778 | 12.22° C | 43% | 1009.4 hPa | 0 mm | - | 48 W/m² | - |
| 1778194475 | 11.67° C | 47% | 1009.4 hPa | 0 mm | - | 71 W/m² | - |
| 1778194171 | 11.67° C | 44% | 1009.5 hPa | 0 mm | - | 64 W/m² | - |
| 1778193867 | 12.22° C | 44% | 1009.4 hPa | 0 mm | - | 33 W/m² | - |
| 1778193564 | 12.78° C | 43% | 1009.1 hPa | 0 mm | - | 46 W/m² | - |
* Rain latest hour (hover to see other rain measurements)
** Current wind speed in m/s (hover to see current wind gust speed)